College Station, TX

8:35 AM CDT on May 21, 2018 (GMT -0500)
Easterwood

Weather History for KCLL - October, 2010

Change the Weather History Date:

Thursday, October 7, 2010

  Actual Average Record
Temperature  
Mean Temperature 69 °F 73 °F  
Max Temperature 86 °F 84 °F 97 °F (1917)
Min Temperature 51 °F 63 °F 47 °F (1999)
Degree Days  
Heating Degree Days 0 0  
Month to date heating degree days 0 0  
Since 1 July heating degree days 0 2  
Cooling Degree Days 4 9  
Month to date cooling degree days 33 67  
Year to date cooling degree days 3121 2863  
Growing Degree Days 18 (Base 50)    
Moisture  
Dew Point 42 °F    
Average Humidity 46    
Maximum Humidity 77    
Minimum Humidity 14    
Precipitation  
Precipitation 0.00 in 0.15 in 3.50 in (1918)
Month to date precipitation 0.00 1.01  
Year to date precipitation 26.07 29.71  
Sea Level Pressure  
Sea Level Pressure 30.19 in    
Wind  
Wind Speed 1 mph (WSW)    
Max Wind Speed 7 mph    
Max Gust Speed 18 mph    
Visibility 10 miles    
Events      
T = Trace of Precipitation, MM = Missing Value Source: NWS Daily Summary

Daily Weather History Graph

Daily Weather History Graph

Search for Another Location

Airport or City:

Astronomy

Oct. 07, 2010 Rise Set
Actual Time 7:22 AM CDT 7:03 PM CDT
Civil Twilight 6:58 AM CDT 7:27 PM CDT
Nautical Twilight 6:30 AM CDT 7:55 PM CDT
Astronomical Twilight 6:02 AM CDT 8:23 PM CDT
Moon 7:11 AM CDT (10/7) 6:47 PM CDT (10/7)
Length of Visible Light 12h 28m
Length of Day
11h 40m
Waning Crescent, 0% of the Moon is Illuminated
Oct 7
Waning Crescent
Oct 7
New
Oct 14
First Quarter
Oct 22
Full
Oct 30
Last Quarter

Hourly Weather History & Observations

Time (CDT) Temp. Dew Point Humidity Pressure Visibility Wind Dir Wind Speed Gust Speed Precip Events Conditions
12:53 AM 57.0 °F 42.1 °F 57% 30.21 in 10.0 mi Calm Calm - N/A   Clear
1:53 AM 55.0 °F 45.0 °F 69% 30.21 in 10.0 mi Calm Calm - N/A   Clear
2:53 AM 55.0 °F 46.0 °F 72% 30.20 in 10.0 mi Calm Calm - N/A   Clear
3:53 AM 52.0 °F 45.0 °F 77% 30.19 in 10.0 mi Calm Calm - N/A   Clear
4:53 AM 52.0 °F 45.0 °F 77% 30.19 in 10.0 mi Calm Calm - N/A   Clear
5:53 AM 53.1 °F 45.0 °F 74% 30.20 in 10.0 mi Calm Calm - N/A   Clear
6:53 AM 51.1 °F 45.0 °F 80% 30.22 in 10.0 mi Calm Calm - N/A   Clear
7:53 AM 53.1 °F 45.0 °F 74% 30.24 in 10.0 mi Calm Calm - N/A   Clear
8:53 AM 59.0 °F 48.9 °F 69% 30.26 in 10.0 mi Calm Calm - N/A   Clear
9:53 AM 68.0 °F 50.0 °F 52% 30.27 in 10.0 mi Calm Calm - N/A   Clear
10:53 AM 75.9 °F 46.0 °F 35% 30.27 in 10.0 mi NW 4.6 mph - N/A   Clear
11:53 AM 78.1 °F 41.0 °F 27% 30.26 in 10.0 mi Calm Calm - N/A   Clear
12:53 PM 81.0 °F 37.9 °F 21% 30.24 in 10.0 mi Variable 3.5 mph - N/A   Clear
1:53 PM 82.0 °F 37.0 °F 20% 30.20 in 10.0 mi Calm Calm - N/A   Clear
2:53 PM 84.0 °F 35.1 °F 17% 30.17 in 10.0 mi SSW 3.5 mph - N/A   Clear
3:53 PM 84.9 °F 30.9 °F 14% 30.15 in 10.0 mi WSW 5.8 mph - N/A   Clear
4:53 PM 84.9 °F 33.1 °F 16% 30.13 in 10.0 mi West 5.8 mph - N/A   Clear
5:53 PM 84.9 °F 33.1 °F 16% 30.12 in 10.0 mi Calm Calm - N/A   Clear
6:53 PM 81.0 °F 34.0 °F 18% 30.12 in 10.0 mi Calm Calm - N/A   Clear
7:53 PM 69.1 °F 48.0 °F 47% 30.13 in 10.0 mi SW 3.5 mph - N/A   Clear
8:53 PM 69.1 °F 41.0 °F 36% 30.15 in 10.0 mi Calm Calm - N/A   Clear
9:53 PM 64.0 °F 45.0 °F 50% 30.15 in 10.0 mi Calm Calm - N/A   Clear
10:53 PM 63.0 °F 46.0 °F 54% 30.16 in 10.0 mi Calm Calm - N/A   Clear
11:53 PM 61.0 °F 46.9 °F 60% 30.16 in 10.0 mi Calm Calm - N/A   Clear